Location: Newark
(41.9364°N, 2.8061°E)
Time: 09:30:23
(UTC+00:00)

Tiros 1 - All Passes

Search period start: 17 February 2020 00:00
Search period end: 27 February 2020 00:00
Orbit: 630 x 664 km, 48.4° (Epoch: 16 February)

Date Brightness Start Highest point End Pass type
(mag) Time Alt. Az. Time Alt. Az. Time Alt. Az.
17 Feb - 02:14:46 10° SSE 02:17:28 15° SE 02:20:10 10° E visible
17 Feb - 03:54:27 10° SW 03:59:03 73° SSE 04:03:40 10° ENE visible
17 Feb - 05:37:04 10° W 05:41:29 43° NNW 05:45:54 10° ENE visible
17 Feb - 07:20:01 10° WNW 07:24:21 39° N 07:28:43 10° ENE daylight
17 Feb - 09:02:16 10° WNW 09:06:56 86° NNE 09:11:36 10° ESE daylight
17 Feb - 10:45:08 10° W 10:48:43 22° SW 10:52:19 10° S daylight
18 Feb - 02:38:59 10° SSW 02:43:08 33° SE 02:47:17 10° ENE visible
18 Feb - 04:20:33 10° WSW 04:25:09 65° NNW 04:29:45 10° ENE visible
18 Feb - 06:03:34 10° WNW 06:07:52 36° N 06:12:10 10° ENE visible
18 Feb - 07:46:11 10° WNW 07:50:41 51° NNE 07:55:14 10° E daylight
18 Feb - 09:28:26 10° WNW 09:32:56 50° SW 09:37:25 10° SE daylight
19 Feb - 01:25:02 10° SSE 01:27:28 14° SE 01:29:53 10° E night (unlit)
19 Feb - 03:04:25 10° SW 03:09:01 68° SSE 03:13:36 10° ENE visible
19 Feb - 04:46:58 10° W 04:51:24 44° NNW 04:55:50 10° ENE visible
19 Feb - 06:29:57 10° WNW 06:34:16 38° N 06:38:37 10° ENE daylight
19 Feb - 08:12:14 10° WNW 08:16:53 81° NNE 08:21:32 10° ESE daylight
19 Feb - 09:55:00 10° W 09:58:43 24° SW 10:02:26 10° S daylight
20 Feb - 01:49:03 10° SSW 01:53:07 31° SE 01:57:11 10° ENE night (unlit)
20 Feb - 03:30:28 10° WSW 03:35:05 68° NNW 03:39:42 10° ENE visible
20 Feb - 05:13:29 10° WNW 05:17:47 37° N 05:22:05 10° ENE visible
20 Feb - 06:56:07 10° WNW 07:00:37 49° NNE 07:05:07 10° E daylight
20 Feb - 08:38:22 10° WNW 08:42:53 54° SW 08:47:24 10° SE daylight
20 Feb - 10:23:41 10° WSW 10:24:17 10° SW 10:24:55 10° SW daylight
21 Feb - 00:35:22 10° SSE 00:37:28 13° SE 00:39:34 10° ESE night (unlit)
21 Feb - 02:14:23 10° SW 02:18:58 64° SSE 02:23:33 10° ENE visible
21 Feb - 03:56:52 10° W 04:01:19 45° NNW 04:05:47 10° ENE visible
21 Feb - 05:39:52 10° WNW 05:44:11 38° N 05:48:31 10° ENE visible
21 Feb - 07:22:11 10° WNW 07:26:49 77° NNE 07:31:28 10° ESE daylight
21 Feb - 09:04:52 10° W 09:08:42 26° SW 09:12:32 10° SSE daylight
22 Feb - 00:59:07 10° SSW 01:03:06 29° SE 01:07:04 10° E night (unlit)
22 Feb - 02:40:23 10° WSW 02:45:01 72° NNW 02:49:39 10° ENE visible
22 Feb - 04:23:23 10° WNW 04:27:42 37° N 04:32:00 10° ENE visible
22 Feb - 06:06:04 10° WNW 06:10:32 47° NNE 06:15:01 10° E visible
22 Feb - 07:48:18 10° WNW 07:52:51 58° SW 07:57:24 10° SE daylight
22 Feb - 09:32:50 10° WSW 09:34:18 11° SW 09:35:46 10° SSW daylight
22 Feb - 23:45:48 10° SSE 23:47:28 12° SE 23:49:08 10° ESE night (unlit)
23 Feb - 01:24:22 10° SW 01:28:56 59° SE 01:33:29 10° ENE night (unlit)
23 Feb - 03:06:46 10° W 03:11:15 47° NNW 03:15:44 10° ENE visible
23 Feb - 04:49:47 10° WNW 04:54:06 37° N 04:58:25 10° ENE visible
23 Feb - 06:32:08 10° WNW 06:36:46 73° NNE 06:41:24 10° ESE daylight
23 Feb - 08:14:44 10° W 08:18:41 28° SW 08:22:37 10° SSE daylight
24 Feb - 00:09:11 10° SSW 00:13:05 27° SE 00:16:58 10° E night (unlit)
24 Feb - 01:50:18 10° WSW 01:54:57 76° NNW 01:59:36 10° ENE night (unlit)
24 Feb - 03:33:16 10° WNW 03:37:36 38° N 03:41:55 10° ENE visible
24 Feb - 05:16:00 10° WNW 05:20:28 46° NNE 05:24:55 10° E visible
24 Feb - 06:58:14 10° WNW 07:02:49 62° SSW 07:07:23 10° SE daylight
24 Feb - 08:42:21 10° WSW 08:44:18 12° SW 08:46:15 10° SSW daylight
24 Feb - 22:56:25 10° SE 22:57:28 11° SE 22:58:30 10° ESE night (unlit)
25 Feb - 00:34:20 10° SW 00:38:53 55° SE 00:43:25 10° ENE night (unlit)
25 Feb - 02:16:40 10° W 02:21:10 49° NNW 02:25:41 10° ENE visible
25 Feb - 03:59:42 10° WNW 04:04:01 37° N 04:08:19 10° ENE visible
25 Feb - 05:42:05 10° WNW 05:46:43 69° NNE 05:51:19 10° ESE visible
25 Feb - 07:24:37 10° WNW 07:28:39 30° SW 07:32:41 10° SSE daylight
25 Feb - 23:19:16 10° S 23:23:04 25° SE 23:26:50 10° E night (unlit)
26 Feb - 01:00:14 10° WSW 01:04:54 80° NNW 01:09:33 10° ENE night (unlit)
26 Feb - 02:43:10 10° WNW 02:47:31 38° N 02:51:51 10° ENE visible
26 Feb - 04:25:56 10° WNW 04:30:23 44° NNE 04:34:49 10° E visible
26 Feb - 06:08:11 10° WNW 06:12:46 67° SSW 06:17:21 10° SE daylight
26 Feb - 07:51:59 10° W 07:54:17 14° SW 07:56:37 10° SSW daylight
26 Feb - 23:44:19 10° SW 23:48:51 51° SE 23:53:22 10° ENE night (unlit)
